Location: Cran-Gévrier
(45.9039°N, 6.1012°E)
Time: 21:25:17
(UTC+00:00)

Envisat - Pass Details

Date: 28 May 2023
Orbit: 763 x 764 km, 98.2° (Epoch: 02 October)

Event Time Altitude Azimuth Distance (km) Brightness Sun altitude
Rises 02:51:10 0° 21° (NNE) 3,238 7.6 -9.1°
Reaches altitude 10° 02:53:40 10° 30° (NNE) 2,308 6.9 -8.8°
Maximum altitude 02:58:20 36° 96° (E) 1,200 4.5 -8.2°
Drops below altitude 10° 03:02:58 10° 163° (SSE) 2,292 5.2 -7.6°
Sets 03:05:26 0° 172° (S) 3,213 5.9 -7.3°
